Jacksonville, FL

12:48 AM EDT on June 27, 2017 (GMT -0400)
Jacksonville International

Weather History for KJAX - February, 2013

Change the Weather History Date:

Tuesday, February 5, 2013

  Actual Average Record
Temperature  
Mean Temperature 56 °F 55 °F  
Max Temperature 71 °F 67 °F 87 °F (1957)
Min Temperature 40 °F 43 °F 19 °F (1996)
Degree Days  
Heating Degree Days 9 11  
Month to date heating degree days 74 55  
Since 1 July heating degree days 731 931  
Cooling Degree Days 0 0  
Month to date cooling degree days 0 0  
Year to date cooling degree days 41 11  
Growing Degree Days 5 (Base 50)    
Moisture  
Dew Point 45 °F    
Average Humidity 68    
Maximum Humidity 96    
Minimum Humidity 40    
Precipitation  
Precipitation T in 0.10 in 2.00 in (1987)
Month to date precipitation T 0.54  
Year to date precipitation 1.01 3.84  
Snow  
Snow 0.00 in 0.00 in T in (1875)
Month to date snowfall 0.0 0.0  
Since 1 July snowfall 0.0 T  
Snow Depth 0.00 in    
Sea Level Pressure  
Sea Level Pressure 30.06 in    
Wind  
Wind Speed 2 mph (SW)    
Max Wind Speed 12 mph    
Max Gust Speed 17 mph    
Visibility 10 miles    
Events      
T = Trace of Precipitation, MM = Missing Value Source: NWS Daily Summary

Daily Weather History Graph

Daily Weather History Graph

Search for Another Location

Airport or City:

Trip Planner

Search our weather history database for the weather conditions in past years. The results will help you decide how hot, cold, wet, or windy it might be!

Date:

Astronomy

Feb. 05, 2013 Rise Set
Actual Time 7:15 AM EST 6:06 PM EST
Civil Twilight 6:50 AM EST 6:31 PM EST
Nautical Twilight 6:21 AM EST 7:00 PM EST
Astronomical Twilight 5:53 AM EST 7:28 PM EST
Moon 2:48 AM EST (2/5) 1:30 PM EST (2/5)
Length of Visible Light 11h 41m
Length of Day
10h 51m
Waning Crescent, 27% of the Moon is Illuminated
Feb 5
Waning Crescent
Feb 10
New
Feb 17
First Quarter
Feb 25
Full
Mar 4
Last Quarter

Hourly Weather History & Observations

Time (EST) Temp. Windchill Dew Point Humidity Pressure Visibility Wind Dir Wind Speed Gust Speed Precip Events Conditions
12:56 AM 48.0 °F - 43.0 °F 83% 30.05 in 10.0 mi Calm Calm - N/A   Mostly Cloudy
1:56 AM 46.9 °F - 43.0 °F 86% 30.05 in 10.0 mi Calm Calm - N/A   Mostly Cloudy
2:56 AM 43.0 °F - 41.0 °F 93% 30.04 in 10.0 mi Calm Calm - N/A   Scattered Clouds
3:56 AM 41.0 °F - 39.0 °F 93% 30.04 in 10.0 mi Calm Calm - N/A   Scattered Clouds
4:56 AM 41.0 °F 39.0 °F 37.9 °F 89% 30.03 in 10.0 mi SSE 3.5 mph - N/A   Partly Cloudy
5:56 AM 41.0 °F - 39.0 °F 93% 30.05 in 10.0 mi Calm Calm - N/A   Partly Cloudy
6:56 AM 41.0 °F - 39.0 °F 93% 30.08 in 10.0 mi Calm Calm - N/A   Mostly Cloudy
7:56 AM 44.1 °F - 41.0 °F 89% 30.09 in 10.0 mi Calm Calm - N/A   Mostly Cloudy
8:56 AM 50.0 °F - 42.1 °F 74% 30.09 in 10.0 mi Calm Calm - N/A   Mostly Cloudy
9:56 AM 53.1 °F - 41.0 °F 64% 30.11 in 10.0 mi SSW 3.5 mph - N/A   Mostly Cloudy
10:56 AM 57.0 °F - 44.1 °F 62% 30.11 in 10.0 mi SSW 3.5 mph - N/A   Overcast
11:56 AM 64.0 °F - 44.1 °F 48% 30.09 in 10.0 mi WSW 3.5 mph - N/A   Mostly Cloudy
12:56 PM 66.0 °F - 44.1 °F 45% 30.06 in 10.0 mi WSW 5.8 mph - N/A   Mostly Cloudy
1:56 PM 66.9 °F - 45.0 °F 45% 30.03 in 10.0 mi Variable 3.5 mph - N/A   Mostly Cloudy
2:56 PM 69.1 °F - 44.1 °F 40% 30.03 in 10.0 mi Variable 5.8 mph - N/A   Mostly Cloudy
3:56 PM 69.1 °F - 45.0 °F 42% 30.02 in 10.0 mi SW 3.5 mph - N/A   Mostly Cloudy
4:56 PM 69.1 °F - 48.0 °F 47% 30.02 in 10.0 mi West 4.6 mph - N/A   Mostly Cloudy
5:56 PM 64.9 °F - 52.0 °F 63% 30.01 in 10.0 mi Calm Calm - N/A   Mostly Cloudy
6:56 PM 60.1 °F - 52.0 °F 75% 30.03 in 10.0 mi Calm Calm - 0.00 in   Mostly Cloudy
7:56 PM 57.9 °F - 53.1 °F 84% 30.04 in 10.0 mi Calm Calm - N/A   Mostly Cloudy
8:56 PM 57.2 °F - 51.8 °F 82% 30.05 in 10.0 mi Calm Calm - N/A   Mostly Cloudy
9:56 PM 57.9 °F - 51.1 °F 78% 30.07 in 10.0 mi Calm Calm - N/A   Overcast
10:56 PM 57.9 °F - 53.1 °F 84% 30.07 in 10.0 mi Calm Calm - 0.00 in   Overcast
11:56 PM 57.0 °F - 52.0 °F 83% 30.07 in 10.0 mi Calm Calm - N/A   Overcast